sat.trackr.live / text

‹ back to catalog

STARLINK-5335

NORAD 56508 · 2023-065F

PAYLOAD ACTIVE UNKNOWN

§ Identity

Operator
Country
US
Launch date
2023-05-14
Launch site
AFETR
Launch vehicle
Mass (kg)
RCS (m²)

Purposes: comms

External: N2YO · Heavens-Above · Gunter

§ Orbital elements

Epoch: 2026-09-20T00:20:17.623968Z

Period
94.27 min
Inclination
43.0028°
Eccentricity
0.0001509
Mean motion
15.27580639 rev/d
Perigee alt
482.0 km
Apogee alt
484.1 km
Semi-major
6,861.2 km
B*
3.1329e-5
RAAN
194.6585°
Arg perigee
268.7177°
Mean anomaly
91.3502°
Rev number
18,632

§ Raw data

STARLINK-53351 56508U 23065F   26263.01409287  .00000600  00000+0  31329-4 0  99972 56508  43.0028 194.6585 0001509 268.7177  91.3502 15.27580639186320

JSON: /api/v1/satellites/56508 · /tle

For live sub-satellite position, see the globe view (requires WebGL).

§ Visibility from observer

Set your observer location to see the next 7 days of passes ≥ 10°. The values pass through the URL so the page stays shareable.

No JS? Fill the form by hand. The geolocation button needs JavaScript.